Find Yaogan 39 02 zu 01 xing

NORAD ID: 57886 Int'l Des: 2023-145 Owner: ZZB Country: CN Constellation: yaogan operational
LEOCIRCULAR

实时位置

正在加载3D地球...

关于 Yaogan 39 02 zu 01 xing

正在加载描述...

即将过境

Passes for default location (London). Set your location on the main map for personalized predictions.

高度历史

Loading altitude history...

两行轨道根数

1 57886U 23145A 26139.88231438 .00006612 00000-0 27485-3 0 9991
2 57886 35.0037 18.4683 0002005 32.6598 327.4241 15.23113165148851
Epoch: May 19, 2026 • Age: 5 hours

当前状态

高度 501.8 km
速度 7.61 km/s
星下点 -25.73°S, 71.16°E
发射日期 Sep 17, 2023
运行时间 2.6 years
类型 military

技术详情

分类 Payload
质量 300.00 kg
干质量 300.00 kg
总质量 300.00 kg
长度 2.50 m
直径 2.50 m
跨度 5.00 m
形状 Box + 2 Pan
制造商 DFHZ
阶段状态 In Orbit
所有者/国家 ZZB/CN

Most Searched